Location: Vallejo Observatory
(38.1221°N, 122.2109°W)
Time: 05:34:24
(UTC-07:00)

Daily predictions for brighter satellites

Satellite Brightness Start Highest point End
(mag) Time Altitude Azimuth Time Altitude Azimuth Time Altitude Azimuth
Cosmos 1943 Rocket 2.2 00:00:10 10° NNW 00:05:17 73° WNW 00:05:17 73° WNW
ISS -0.2 00:08:05 15° N 00:08:05 15° N 00:09:33 10° NNE
H-2A R/B 4.0 00:21:14 18° W 00:21:14 18° W 00:24:28 10° NW
Cosmos 1741 Rocket 4.4 00:24:02 62° NNW 00:24:02 62° NNW 00:28:44 10° NNE
Cosmos 1656 Rocket 3.9 00:19:03 10° NNW 00:24:17 67° NNE 00:24:17 67° NNE
Atlas Centaur 2 4.0 00:21:49 10° WSW 00:26:16 32° WSW 00:26:16 32° WSW
Cosmos 2026 Rocket 3.9 00:31:38 74° ENE 00:31:38 74° ENE 00:37:19 10° N
Cosmos 2195 Rocket 4.4 00:31:46 84° NNE 00:31:46 84° NNE 00:37:49 10° N
USA 238 DEB 4.0 00:30:01 46° WSW 00:32:05 63° NW 00:39:07 10° NNE
USA 238 4.0 00:30:10 47° WSW 00:32:10 64° NW 00:39:12 10° NNE
Cosmos 1627 Rocket 4.4 00:33:01 83° N 00:33:01 83° N 00:38:54 10° N
Cosmos 2221 4.0 00:29:37 10° N 00:32:11 34° NNE 00:32:11 34° NNE
H-2A R/B 4.4 00:31:32 10° N 00:33:16 26° N 00:33:16 26° N
CZ-2C R/B 4.2 00:31:25 10° NE 00:34:55 26° ENE 00:34:55 26° ENE
Cosmos 2369 Rocket 4.3 00:34:02 10° WNW 00:36:43 15° W 00:36:43 15° W
Cosmos 2344 4.2 00:48:00 39° ESE 00:48:00 39° ESE 00:55:12 10° NE
Meteor 1-16 Rocket 4.4 00:46:00 10° N 00:50:53 69° NNW 00:50:53 69° NNW
Cosmos 1607 4.3 00:51:22 53° W 00:52:05 57° NW 00:58:12 10° NNE
ALOS 2 4.1 00:56:46 34° NNW 00:56:46 34° NNW 00:59:21 10° NNW
COSMOS 2406 4.5 00:56:47 31° W 00:57:46 33° WNW 01:02:55 10° N
Cosmos 2278 4.4 00:58:41 10° N 01:04:07 46° ENE 01:04:08 46° ENE
NOSS 3-2 (C) 3.5 01:06:59 72° ENE 01:06:59 72° ENE 01:12:58 10° NE
CENTAUR R/B 4.3 01:11:26 17° E 01:11:26 17° E 01:14:29 10° ENE
Cosmos 1553 Rocket 4.0 01:10:01 10° N 01:16:07 79° WNW 01:16:07 79° WNW
Cosmos 1818 4.1 01:18:27 10° NNW 01:23:37 54° NE 01:23:37 54° NE
Cosmos 2082 Rocket 3.0 01:25:00 41° ENE 01:25:00 41° ENE 01:29:16 10° NE
Cosmos 1697 Rocket 4.4 01:25:11 10° N 01:29:55 26° ENE 01:32:00 21° E
Meteor 2-20 Rocket 4.4 01:37:17 75° ENE 01:37:17 75° ENE 01:43:15 10° N
Cosmos 1833 Rocket 3.5 01:38:11 42° E 01:38:11 42° E 01:42:39 10° NE
CZ-4C R/B 2.6 01:38:16 53° NW 01:38:16 53° NW 01:44:01 10° NNE
S3M 4.5 01:35:50 10° NNW 01:41:21 47° WNW 01:41:21 47° WNW
Timation 2 Rocket 4.1 01:41:20 71° W 01:41:49 75° WNW 01:48:41 10° NNE
Cosmos 2266 Rocket 3.9 01:43:40 80° W 01:43:40 80° W 01:50:08 10° N
Cosmos 2151 4.5 01:53:03 34° NE 01:53:03 34° NE 01:55:44 10° NNE
NOSS 3-2 (A) 4.3 01:51:02 38° W 01:52:23 43° NW 01:58:41 10° NNE
Cosmos 724 4.3 01:55:48 69° ENE 01:55:48 69° ENE 02:01:06 10° NNE
Cosmos 1763 Rocket 3.8 01:49:57 10° NNW 01:54:25 63° NNW 01:54:25 63° NNW
Cosmos 1867 3.8 01:56:42 65° NNW 01:56:42 65° NNW 02:01:41 10° NNE
CZ-2C R/B 3.3 02:01:31 72° NW 02:01:31 72° NW 02:06:37 10° NNW
Meteor 2-2 Rocket 4.3 01:55:16 10° N 02:00:35 76° NW 02:00:35 76° NW
Meteor 1-21 Rocket 4.5 02:01:20 60° WNW 02:01:20 60° WNW 02:06:40 10° N
Cosmos 1354 Rocket 4.3 02:09:51 60° NW 02:09:51 60° NW 02:14:39 10° NNE
Cosmos 1656 3.7 02:04:37 10° NNW 02:10:20 73° ENE 02:10:31 72° E
USA 32 4.1 02:08:32 10° N 02:13:28 73° NE 02:13:28 73° NE
CZ-2C R/B 3.6 02:11:22 10° N 02:16:24 36° WNW 02:16:26 36° WNW
Cosmos 1503 Rocket 4.4 02:17:27 55° NW 02:17:27 55° NW 02:22:22 10° N
USA 215 3.1 02:15:12 10° NE 02:21:45 79° SE 02:22:35 68° SSW
Meteor 1-11 4.5 02:26:51 57° ESE 02:27:26 60° E 02:33:08 10° NNE
Cosmos 841 Rocket 4.4 02:27:54 10° NNW 02:31:36 38° WNW 02:31:36 38° WNW
Meteor 2-11 Rocket 4.3 02:28:33 10° N 02:34:44 86° W 02:35:27 72° S
IRAS Rocket 4.1 02:29:41 10° NNE 02:35:11 76° ESE 02:35:30 74° SE
SL-08 R/B 4.3 02:34:51 67° SSE 02:35:40 79° E 02:41:47 10° N
Lacrosse 5 3.2 02:31:19 10° NNW 02:36:03 39° NE 02:40:46 10° ESE
Cosmos 2242 Rocket 4.5 02:32:28 10° N 02:36:40 42° E 02:36:47 42° E
Cosmos 968 Rocket 4.2 02:38:52 41° ESE 02:39:10 41° ESE 02:43:58 10° NNE
Cosmos 1805 Rocket 4.1 02:45:29 54° NNW 02:45:29 54° NNW 02:49:07 10° N
Cosmos 783 Rocket 4.4 02:39:26 10° NNW 02:44:45 87° ENE 02:45:03 80° SE
Cosmos 1300 3.8 02:46:12 10° N 02:48:50 42° N 02:48:50 42° N
Cosmos 1980 Rocket 2.2 02:47:05 10° NNW 02:52:44 76° ENE 02:54:28 45° SE
ERS-2 3.1 02:49:13 10° NNE 02:51:56 47° N 02:51:56 47° N
Cosmos 1633 Rocket 3.1 02:54:47 74° N 02:54:47 74° N 02:58:52 10° N
CENTAUR R/B 2.6 02:58:36 52° WSW 03:00:03 69° NW 03:06:51 10° NNE
Cosmos 1707 Rocket 4.2 02:56:05 10° NNW 02:59:29 46° NW 02:59:29 46° NW
BREEZE-M DEB (TANK) 4.3 02:59:45 45° SSE 03:00:49 50° SE 03:14:16 10° NE
Cosmos 1666 Rocket 4.0 03:02:00 52° NW 03:02:00 52° NW 03:05:42 10° N
IRS-P3 Rocket 4.4 02:58:16 10° NNE 03:03:32 88° W 03:04:16 67° SSW
CZ-2D R/B 4.0 03:02:07 10° NE 03:06:06 22° E 03:09:16 13° SE
Cosmos 2082 Rocket 3.6 03:06:50 22° WNW 03:08:11 24° WNW 03:12:46 10° N
Cosmos 371 Rocket 3.7 03:04:29 10° N 03:09:19 61° ENE 03:11:13 34° SE
NPP 3.6 03:04:10 10° N 03:09:34 78° WNW 03:10:32 60° SW
OAO 1 Rocket 4.4 03:11:04 64° S 03:11:05 64° S 03:16:24 10° E
Cosmos 1470 Rocket 3.6 03:11:22 63° SE 03:11:48 69° E 03:16:14 10° NNE
SL-16 R/B 3.9 03:08:01 10° SE 03:13:37 36° ENE 03:19:14 10° N
Cosmos 1697 Rocket 3.2 03:08:42 10° NW 03:13:41 42° W 03:13:41 42° W
CBERS-1 3.9 03:09:23 10° NNE 03:14:30 84° WNW 03:15:26 61° SSW
ADEOS 3.7 03:10:17 10° NNE 03:15:30 71° ESE 03:16:55 48° S
Aureole 1 Rocket 4.0 03:11:01 10° NW 03:15:09 42° W 03:15:09 42° W
USA 161 4.1 03:17:10 17° NNE 03:17:10 17° NNE 03:18:00 10° NNE
Cosmos 1933 Rocket 3.5 03:16:11 68° SE 03:16:37 75° E 03:21:01 10° N
Cosmos 1455 3.3 03:14:02 10° N 03:17:37 39° E 03:18:34 33° ESE
Cosmos 1833 Rocket 4.1 03:19:52 22° W 03:21:24 25° WNW 03:25:59 10° N
Meteor 1-4 Rocket 3.2 03:18:20 10° N 03:22:03 54° E 03:22:38 48° ESE
ISS 0.1 03:21:20 10° N 03:22:41 12° NNE 03:24:02 10° NE
ARIANE 5 R/B 3.3 03:19:02 10° NNE 03:23:56 45° E 03:26:09 28° SSE
Cosmos 1386 Rocket 4.5 03:22:41 45° SSW 03:24:35 68° W 03:30:46 10° N
SL-14 R/B 4.4 03:25:49 30° NW 03:25:49 30° NW 03:28:38 10° NNW
Cosmos 1869 4.3 03:22:29 10° N 03:26:18 43° E 03:27:54 28° SE
AQUA 3.9 03:22:39 10° N 03:27:21 60° WNW 03:28:05 52° WSW
Cosmos 1745 Rocket 4.5 03:27:20 38° WSW 03:28:59 45° WNW 03:35:03 10° N
Cosmos 1726 3.6 03:26:53 10° NNW 03:29:03 26° NW 03:29:03 26° NW
Cosmos 2360 4.1 03:25:54 10° NNW 03:31:37 75° WSW 03:34:30 30° S
Cosmos 2292 Rocket 3.6 03:32:20 42° E 03:32:24 42° E 03:35:28 10° NNE
ATLAS 5 CENTAUR R/B 3.0 03:32:01 26° SSE 03:33:45 33° ESE 03:38:17 10° NE
Meteor 2-10 3.9 03:30:25 10° NNW 03:35:39 80° W 03:37:55 36° S
Sich 1 4.3 03:37:34 26° WNW 03:37:34 26° WNW 03:41:18 10° NNW
Cosmos 1703 3.8 03:38:16 42° WNW 03:38:16 42° WNW 03:41:59 10° N
Nadezhda 1 Rocket 4.3 03:33:04 10° NNW 03:38:55 47° W 03:40:41 37° SW
Cosmos 1709 Rocket 3.9 03:37:43 33° SSW 03:40:45 83° W 03:47:03 10° N
Okean O Rocket 3.9 03:38:35 10° NE 03:41:43 19° E 03:44:49 10° SE
IRS-1C 4.4 03:40:27 10° N 03:45:39 53° WNW 03:47:28 37° SW
Cosmos 1626 2.0 03:47:26 61° SW 03:47:53 69° W 03:51:38 10° N
EO 1 Del DPAF 3.3 03:49:07 29° SSE 03:51:03 77° ENE 03:54:59 10° N
SL-16 R/B 2.2 03:46:04 10° NNW 03:51:46 86° ENE 03:57:26 10° SSE
Lacrosse 5 rocket 2.7 03:48:48 10° NNW 03:53:03 45° NE 03:57:25 10° ESE
Cosmos 1862 Rocket 3.6 03:48:48 10° NNW 03:53:12 59° W 03:54:34 40° SSW
SL-08 R/B 4.3 03:55:02 29° W 03:55:16 29° W 03:59:30 10° NW
Cosmos 1271 Rocket 2.9 03:52:57 10° NNW 03:56:37 48° W 03:56:56 46° WSW
UNK 4.0 03:52:59 11° SSE 03:57:19 66° ENE 04:01:52 10° N
Cosmos 2221 Rocket 4.1 03:57:30 10° N 04:01:57 60° E 04:06:25 10° SSE
USA 215 4.4 03:58:38 10° NNE 04:04:21 34° NNW 04:09:55 11° W
BREEZE-M TANK 3.9 04:01:17 10° WNW 04:05:03 26° NNW 04:07:17 10° NE
Cosmos 2322 Rocket 2.1 03:59:54 10° NNW 04:05:30 67° WSW 04:11:02 10° S
CZ-3 Stage 3 3.2 03:55:15 10° W 04:05:54 40° SSW 04:09:10 10° ESE
Resurs 1-4 Rocket 2.1 04:00:42 10° NNE 04:06:02 82° ESE 04:09:43 21° S
SEDSat Delta rocket 4.3 04:07:25 24° WSW 04:11:16 48° S 04:17:30 10° ESE
OAO 3 Rocket 3.2 04:12:19 28° WSW 04:14:38 59° S 04:19:17 10° E
Cosmos 1869 Rocket 3.5 04:13:57 21° S 04:16:53 86° E 04:21:19 10° N
Lacrosse 5 2.4 04:14:24 10° WNW 04:18:55 33° WSW 04:23:25 10° S
BREEZE-M DEB (TANK) 4.2 04:20:13 14° W 04:22:55 41° NNW 04:32:13 10° ENE
Cosmos 2298 Rocket 4.4 04:21:18 13° S 04:26:00 63° ESE 04:31:17 10° NNE
Meteor 1-26 Rocket 4.5 04:21:32 10° N 04:27:06 70° E 04:32:34 10° SSE
CRYOSAT 2 4.4 04:23:19 10° N 04:28:09 62° W 04:31:56 16° SSW
SME Rocket 4.1 04:22:01 10° SSE 04:29:32 80° ENE 04:34:29 10° NNW
Cosmos 2181 Rocket 4.5 04:26:52 10° NNW 04:32:31 39° W 04:37:17 14° SSW
ATLAS 2A CENTAUR R/B 4.3 04:26:18 18° SW 04:33:05 47° SSE 05:26:21 10° E
Cosmos 1980 Rocket 3.9 04:33:34 10° WNW 04:35:58 13° W 04:36:10 13° W
Cosmos 2360 Rocket 2.3 04:31:51 10° NNW 04:37:31 79° ENE 04:43:08 10° SSE
Cosmos 923 Rocket 4.4 04:33:13 10° NNW 04:38:09 41° WSW 04:43:00 10° S
In-Cosmos 22 Rocket 4.3 04:35:13 10° S 04:40:29 75° E 04:45:51 10° NNE
Cosmos 1346 4.5 04:39:54 20° WSW 04:40:55 24° WNW 04:43:29 10° NNW
CZ-4B R/B 3.5 04:36:38 10° NNE 04:42:04 69° ESE 04:47:35 10° S
IRS-1C Rocket 4.1 04:39:53 10° N 04:45:11 77° WNW 04:50:26 10° SSW
Cosmos 2219 3.4 04:40:21 10° SSW 04:46:02 77° ESE 04:51:48 10° NNE
CZ-2D R/B 2.6 04:41:23 10° N 04:46:18 42° WNW 04:50:37 13° SW
Cosmos 1703 Rocket 4.1 04:43:48 10° NNW 04:47:49 37° W 04:51:44 10° SSW
Cosmos 2322 3.7 04:42:23 10° NNW 04:48:09 86° WSW 04:53:52 10° SSE
Cosmos 1680 Rocket 3.8 04:43:23 10° NNW 04:48:19 43° WSW 04:53:13 10° S
Cosmos 2154 Rocket 4.3 04:44:25 10° S 04:50:42 75° E 04:57:03 10° N
Nadezhda 3 Rocket 4.4 04:44:48 10° N 04:50:57 66° E 04:57:02 10° SSE
Cosmos 1733 Rocket 3.8 04:47:47 10° S 04:51:59 52° E 04:56:14 10° NNE
Cosmos 1455 4.3 04:51:54 10° WNW 04:52:54 11° W 04:53:35 10° W
Cosmos 389 Rocket 3.7 04:49:54 10° N 04:53:29 48° ENE 04:57:03 10° SSE
MOZ.5/SAFIR/RUBIN 5/SL-8 4.1 04:49:07 10° SSE 04:53:45 72° ENE 04:58:27 10° N
CZ-2D R/B 3.7 04:50:03 10° N 04:54:08 51° WNW 04:57:59 10° SSW
Thor Agena Rocket 3.6 04:49:57 10° SSE 04:55:14 84° WSW 05:00:34 10° NNW
SL-16 R/B 3.2 04:51:35 10° SSW 04:57:10 34° W 05:02:49 10° NNW
H-2A R/B 3.8 04:43:21 10° W 04:59:40 30° SW 05:03:51 10° SSE
ISS -2.3 04:56:33 10° NW 04:59:45 51° NE 05:02:55 10° ESE
CZ-4B DEB 4.3 04:55:43 10° NNE 05:01:14 90° ESE 05:06:45 10° SSW
ARIANE 5 R/B 4.1 04:59:03 10° NNW 05:02:41 20° WNW 05:06:17 10° WSW
UNKNOWN OBJECT B 4.0 04:59:48 10° NNW 05:03:01 26° WNW 05:06:08 11° SW
ATLAS CENTAUR R/B 3.1 04:58:39 10° NNW 05:03:06 41° NE 05:07:11 10° SE
PAYLOAD B 4.2 04:59:07 10° N 05:04:36 73° WNW 05:10:06 10° SSW
USA 229 DEB 3.8 04:59:50 10° SSW 05:06:47 85° WNW 05:13:49 10° NNE
USA 229 3.8 04:59:57 10° SSW 05:06:53 86° WNW 05:13:55 10° NNE
GPS 2-05 Rocket1 3.1 05:05:15 10° WSW 05:08:29 53° S 05:11:54 10° E
Cosmos 1892 2.8 05:06:48 10° S 05:10:41 87° E 05:14:35 10° N
Meteor 2-10 Rocket 3.9 05:07:05 10° N 05:12:07 69° E 05:17:15 10° SSE
CZ-4B R/B 3.0 05:11:07 10° N 05:15:04 64° WNW 05:19:13 10° SSW
GENESIS II 4.3 05:11:43 10° NW 05:15:47 60° WSW 05:19:44 10° SSE
COSMOS 2428 2.9 05:10:56 10° NNW 05:16:38 80° ENE 05:22:18 10° SSE
Cosmos 1898 Rocket 3.8 05:12:58 10° SW 05:18:01 51° WNW 05:23:05 10° N
Okean O Rocket 2.4 05:14:08 10° N 05:18:10 35° WNW 05:22:11 10° SW
ATLAS 5 CENTAUR R/B 3.1 05:14:04 10° WSW 05:18:23 31° NW 05:23:02 10° NNE
